DECAYED

NOAA 16 DEB, 41528 (Decayed)

Orbit data source: Space-Track

NOAA 16 DEB, 41528 was space debris in SSO originally from a launch on Thu, 21 Sep 2000 UTC launched from the Air Force Western Test Range (AFWTR). Debris objects in space refer to the collection of defunct objects orbiting the Earth. Examples of debris include non-operational satellites, rocket bodies, and fragments generated from explosions, collisions, or faulty payload assembly.

Not visible in the next 10 days
Identifier
41528, 2000-055NC
Orbit
Decayed
Country
Flag of USUS
Related business
Manufacturer
Unknown
Mission
Decayed spacecraft
Bus & Motor
Unknown
Mass
Unknown
Launch date (UTC)
2000-09-21 (26 years ago)
Launch vehicle
Unknown
Launch site
Air Force Western Test Range (AFWTR)
Object type
Payload
Rocket body
Debris
Shape & HBR
Unknown shape, 0.1 m
Radar Cross Section
Medium (>0.1 m² and <1 m²)

Expand to show TLE details & history
Last TLE update: 6 months ago

TLE from 6 months ago
0 NOAA 16 DEB
1 41528U 00055NC  25352.80470419  .00577957  00000-0  15838-1 0  9996
2 41528  98.7238 121.3801 0027592 294.1532  65.6822 15.34608720507339
Epoch: 2025-12-18T19:18Z
TLE epoch observation values (Epoch: 2025-12-18T19:18:46.442Z)
Latitude
-0.00004°
Longitude
104.03165°
Altitude
457.421 km
Speed
7.642 km/s
True Right ascension
08h 05m 31s
True Declination
0° 00' 00"
Sunlit
Object was in full shadow at epoch
Visualization orbit readout
Latitude
Unknown
Longitude
Unknown
Altitude
Unknown
Speed
Unknown
Apparent Right ascension
Unknown
Apparent Declination
Unknown
Sunlit
N/A
Visualization observer readout
Local Sidereal Time
06:09:11
Azimuth
Unknown
Elevation
Unknown
Doppler factor
Unknown
Orbital elements
Apogee altitude
477.956 km
Perigee altitude
440.226 km
Semi-major axis
6,837.228 km
Eccentricity
0.00276
Inclination
98.7238°
RAAN
121.3801°
Arg. of periapsis
294.1532°
True anomaly
65.97074°
Mean anomaly
65.6822°
Eccentric anomaly
65.82643°
Mean motion
3.83904 °/min
Orbital period
93.77 mins
BSTAR
0.015838
Loading maneuver chart data...
Computing Atmospheric mass density...
Loading historical data...
Loading historical data...
Loading historical data...
Loading historical data...
Loading historical data...
Loading historical data...
Loading historical data...

Documentation

Showing up to 5 results
|